GW0458 Weather Reports


time (UTC)temp
C
wind
direction
speed
KPH
gust
KPH
rain 1hr
cm
rain 24hr
cm
rain mn
cm
humidity
%
barometer
mb
20260906231843 22 204 1.6 3.2 0.00 0.00 0.00 49 1022.5
20260906224840 22 233 4.8 8.0 0.00 0.00 0.00 52 1022.4
20260906221836 23 209 1.6 1.6 0.00 0.00 0.00 52 1022.6
20260906214836 22 217 0.0 0.0 0.00 0.00 0.00 53 1022.6
20260906211833 23 244 1.6 3.2 0.00 0.00 0.00 50 1022.5
20260906204829 23 233 1.6 3.2 0.00 0.00 0.00 53 1023.0
20260906201826 22 222 1.6 3.2 0.00 0.00 0.00 58 1022.9
20260906194822 22 192 1.6 3.2 0.00 0.00 0.00 55 1023.2
20260906191820 22 220 3.2 4.8 0.00 0.00 0.00 57 1023.4
20260906184820 20 211 1.6 1.6 0.00 0.00 0.00 64 1023.8
20260906181819 20 231 1.6 1.6 0.00 0.00 0.00 69 1024.1
20260906174815 20 219 1.6 3.2 0.00 0.00 0.00 71 1023.9
20260906171813 18 261 4.8 4.8 0.00 0.00 0.00 71 1024.3
20260906164813 17 203 0.0 0.0 0.00 0.00 0.00 78 1024.3
20260906161808 13 215 1.6 1.6 0.00 0.00 0.00 87 1024.6
20260906154807 12 201 0.0 0.0 0.00 0.00 0.00 90 1024.7
20260906151807 11 205 0.0 0.0 0.00 0.00 0.00 97 1024.0
20260906144804 10 199 0.0 0.0 0.00 0.00 0.00 99 1024.4
20260906141801 8 207 0.0 0.0 0.00 0.00 0.00 99 1024.3
20260906134757 8 191 1.6 1.6 0.00 0.00 0.00 99 1024.0
20260906131753 8 198 0.0 0.0 0.00 0.00 0.00 99 1024.1
20260906124752 9 181 0.0 1.6 0.00 0.00 0.00 99 1024.1
20260906121751 8 198 1.6 1.6 0.00 0.00 0.00 99 1024.3
20260906114746 10 198 0.0 0.0 0.00 0.00 0.00 99 1024.3
20260906111744 9 201 0.0 0.0 0.00 0.00 0.00 99 1024.1
20260906104742 9 207 0.0 0.0 0.00 0.00 0.00 99 1023.8
20260906101741 10 200 0.0 0.0 0.00 0.00 0.00 99 1024.0
20260906094738 10 200 0.0 0.0 0.00 0.00 0.00 99 1024.1
20260906091733 10 212 0.0 0.0 0.00 0.00 0.00 99 1024.0
20260906084730 10 193 0.0 0.0 0.00 0.00 0.00 99 1023.8
20260906081730 11 202 0.0 0.0 0.00 0.00 0.00 99 1024.1
20260906074730 11 203 1.6 1.6 0.00 0.00 0.00 99 1024.0
20260906071729 11 196 0.0 0.0 0.00 0.00 0.00 98 1024.3
20260906064728 11 199 0.0 0.0 0.00 0.00 0.00 98 1024.5
20260906061728 12 199 0.0 0.0 0.00 0.00 0.00 97 1024.5
20260906054726 12 199 0.0 0.0 0.00 0.00 0.00 96 1024.7
20260906051725 13 206 0.0 0.0 0.00 0.00 0.00 95 1024.6
20260906044722 13 199 3.2 3.2 0.00 0.00 0.00 91 1024.8
20260906041721 15 205 0.0 0.0 0.00 0.00 0.00 87 1024.8
20260906034721 15 203 0.0 0.0 0.00 0.00 0.00 85 1024.8
20260906031721 16 204 0.0 0.0 0.00 0.00 0.00 78 1024.3
20260906024716 17 186 0.0 0.0 0.00 0.00 0.00 73 1024.3
20260906021717 18 182 0.0 0.0 0.00 0.00 0.00 68 1023.8
20260906014716 19 206 0.0 0.0 0.00 0.00 0.00 65 1023.7
20260906011716 20 205 0.0 0.0 0.00 0.00 0.00 61 1023.6
20260906004713 20 206 0.0 0.0 0.00 0.00 0.00 60 1023.7
20260906001707 20 212 0.0 0.0 0.00 0.00 0.00 65 1023.6
20260905234705 20 217 0.0 0.0 0.00 0.00 0.00 61 1023.9